STARLINK-36723

Last updated on Wed Mar 25 2026 00:02:05 GMT+0000 (Coordinated Universal Time)

1 67915U 26036M 26083.50002314 -.02176832 00000+0 -69761-1 0 9999 2 67915 42.9995 161.5811 0001238 297.8256 202.5697 15.35076632 6021
UTC large
Height (km)
Speed (km/s)
/
Latitude / Longitude
Inclination (degrees)
Orbital Period (minutes)
Azimuth
Elevation
Range (km)
Doppler Factor

Next 0 passes for location: London (51.5072 / 0.1276)

Sorry there are no passes over London.